EW3370 Weather Reports


Display with metric or nautical units.
time (UTC)temp
F
wind
direction
speed
MPH
gust
MPH
rain 1hr
in
rain 24hr
in
rain mn
in
humidity
%
barometer
mb
20260901005045 78 267 2.0 7.0 0.00 0.00 0.00 73 1011.6
20260901004523 78 209 2.0 7.0 0.00 0.00 0.00 73 1011.6
20260901004049 79 259 4.0 7.0 0.00 0.00 0.00 73 1011.6
20260901003531 78 287 2.0 7.0 0.00 0.00 0.00 72 1011.7
20260901003031 78 235 3.0 7.0 0.00 0.00 0.00 72 1011.6
20260901002535 79 245 3.0 7.0 0.00 0.00 0.00 71 1011.7
20260901002041 79 262 1.0 6.0 0.00 0.00 0.00 70 1011.6
20260901001520 79 219 1.0 5.0 0.00 0.00 0.00 71 1011.7
20260901001037 79 205 1.0 8.0 0.00 0.00 0.00 72 1011.7
20260901000524 79 259 1.0 8.0 0.00 0.00 0.00 73 1011.7
20260901000046 79 242 3.0 8.0 0.00 0.00 0.00 72 1011.7
20260831235550 79 254 3.0 8.0 0.00 0.00 0.00 72 1011.6
20260831235031 79 248 2.0 8.0 0.00 0.00 0.00 73 1011.7
20260831234537 79 237 3.0 8.0 0.00 0.00 0.00 73 1011.8
20260831234036 79 241 4.0 9.0 0.00 0.00 0.00 74 1011.7
20260831233554 79 269 4.0 9.0 0.00 0.00 0.00 73 1011.7
20260831233038 79 211 3.0 11.0 0.00 0.00 0.00 74 1011.7
20260831232535 79 229 3.0 11.0 0.00 0.00 0.00 74 1011.6
20260831232022 79 234 4.0 10.0 0.00 0.00 0.00 73 1011.7
20260831231525 80 212 5.0 10.0 0.00 0.00 0.00 72 1011.7
20260831231029 80 286 5.0 9.0 0.00 0.00 0.00 72 1011.7
20260831230530 80 270 3.0 10.0 0.00 0.00 0.00 72 1011.8
20260831230021 81 268 5.0 10.0 0.00 0.00 0.00 71 1011.8
20260831225525 81 244 4.0 8.0 0.00 0.00 0.00 71 1011.8
20260831225028 81 229 5.0 10.0 0.00 0.00 0.00 71 1011.9
20260831224529 81 227 5.0 11.0 0.00 0.00 0.00 71 1012.0
20260831224029 81 240 3.0 11.0 0.00 0.00 0.00 72 1012.0
20260831223530 81 315 5.0 11.0 0.00 0.00 0.00 71 1011.9
20260831223026 81 278 5.0 11.0 0.00 0.00 0.00 71 1012.0
20260831222527 81 277 4.0 9.0 0.00 0.00 0.00 72 1012.1
20260831222036 81 282 5.0 11.0 0.00 0.00 0.00 72 1012.2
20260831221520 81 227 5.0 11.0 0.00 0.00 0.00 71 1012.2
20260831221023 81 262 5.0 10.0 0.00 0.00 0.00 71 1012.2
20260831220524 81 237 4.0 10.0 0.00 0.00 0.00 72 1012.3
20260831220029 81 286 4.0 11.0 0.00 0.00 0.00 72 1012.3
20260831215529 81 272 5.0 11.0 0.00 0.00 0.00 71 1012.3
20260831215034 81 227 5.0 9.0 0.00 0.00 0.00 71 1012.3
20260831214521 81 277 4.0 9.0 0.00 0.00 0.00 71 1012.3
20260831214023 81 218 4.0 10.0 0.00 0.00 0.00 71 1012.3
20260831213527 81 256 5.0 10.0 0.00 0.00 0.00 70 1012.3
20260831213034 82 299 5.0 10.0 0.00 0.00 0.00 70 1012.3
20260831212533 81 270 4.0 10.0 0.00 0.00 0.00 70 1012.4
20260831212038 82 270 4.0 10.0 0.00 0.00 0.00 69 1012.4
20260831211543 82 270 4.0 9.0 0.00 0.00 0.00 70 1012.4
20260831211020 81 260 5.0 9.0 0.00 0.00 0.00 69 1012.5
20260831210527 82 224 4.0 8.0 0.00 0.00 0.00 69 1012.6
20260831210022 82 188 3.0 9.0 0.00 0.00 0.00 69 1012.7
20260831205524 82 247 5.0 8.0 0.00 0.00 0.00 69 1012.8
20260831205021 82 262 2.0 12.0 0.00 0.00 0.00 69 1012.8
20260831204526 82 271 5.0 12.0 0.00 0.00 0.00 68 1012.8
20260831204027 83 243 3.0 10.0 0.00 0.00 0.00 68 1012.9
20260831203530 83 232 2.0 9.0 0.00 0.00 0.00 67 1012.8
20260831203048 83 223 3.0 9.0 0.00 0.00 0.00 68 1012.9
20260831202522 83 225 2.0 7.0 0.00 0.00 0.00 68 1012.8
20260831202025 83 194 3.0 8.0 0.00 0.00 0.00 67 1012.9
20260831201527 83 248 3.0 10.0 0.00 0.00 0.00 67 1013.0
20260831201052 83 206 3.0 10.0 0.00 0.00 0.00 68 1012.9
20260831200535 82 210 3.0 7.0 0.00 0.00 0.00 68 1012.9
20260831200031 83 196 5.0 8.0 0.00 0.00 0.00 67 1012.9
20260831195533 83 225 4.0 7.0 0.00 0.00 0.00 67 1012.9
20260831195037 82 219 3.0 8.0 0.00 0.00 0.00 68 1012.9
20260831194536 83 213 3.0 8.0 0.00 0.00 0.00 68 1012.9
20260831194036 82 242 2.0 7.0 0.00 0.00 0.00 68 1013.0
20260831193533 82 207 3.0 11.0 0.00 0.00 0.00 68 1013.0
20260831193031 82 226 3.0 11.0 0.00 0.00 0.00 68 1013.0
20260831192525 82 207 2.0 11.0 0.00 0.00 0.00 68 1013.1
20260831192018 82 188 2.0 9.0 0.00 0.00 0.00 69 1013.1
20260831191539 82 244 3.0 9.0 0.00 0.00 0.00 69 1013.1
20260831191034 82 201 1.0 8.0 0.00 0.00 0.00 70 1013.1
20260831190554 81 235 5.0 8.0 0.00 0.00 0.00 70 1013.1
20260831190029 82 268 4.0 8.0 0.00 0.00 0.00 69 1013.1
20260831185532 82 216 2.0 9.0 0.00 0.00 0.00 69 1013.2
20260831185030 81 227 2.0 9.0 0.00 0.00 0.00 71 1013.1
20260831184543 81 203 1.0 9.0 0.00 0.00 0.00 71 1013.1
20260831184035 81 211 4.0 9.0 0.00 0.00 0.00 71 1013.1
20260831183537 81 213 3.0 8.0 0.00 0.00 0.00 71 1013.1
20260831183054 81 222 3.0 8.0 0.00 0.00 0.00 70 1013.2
20260831182529 81 205 3.0 9.0 0.00 0.00 0.00 70 1013.2
20260831182030 81 188 3.0 9.0 0.00 0.00 0.00 70 1013.2
20260831181526 81 224 4.0 7.0 0.00 0.00 0.00 69 1013.1
20260831181029 81 194 4.0 8.0 0.00 0.00 0.00 70 1013.1
20260831180545 81 198 3.0 7.0 0.00 0.00 0.00 70 1013.1
20260831180034 81 236 4.0 7.0 0.00 0.00 0.00 70 1013.1
20260831175532 81 205 1.0 7.0 0.00 0.00 0.00 70 1013.1
20260831175030 81 205 1.0 7.0 0.00 0.00 0.00 69 1013.1
20260831174530 82 206 1.0 7.0 0.00 0.00 0.00 70 1013.0
20260831174050 81 195 0.0 5.0 0.00 0.00 0.00 70 1013.0
20260831173546 81 225 0.0 7.0 0.00 0.00 0.00 71 1013.0
20260831173018 81 256 1.0 7.0 0.00 0.00 0.00 70 1012.9
20260831172537 81 209 0.0 1.0 0.00 0.00 0.00 70 1012.9
20260831172036 81 219 0.0 4.0 0.00 0.00 0.00 71 1012.9
20260831171533 80 229 0.0 4.0 0.00 0.00 0.00 70 1012.9
20260831171054 80 195 0.0 2.0 0.00 0.00 0.00 71 1012.8
20260831170532 80 211 0.0 2.0 0.00 0.00 0.00 71 1012.8
20260831170036 80 203 0.0 0.0 0.00 0.00 0.00 70 1012.9
20260831165538 81 212 0.0 0.0 0.00 0.00 0.00 70 1012.8
20260831165038 80 143 0.0 0.0 0.00 0.00 0.00 70 1012.8
20260831164535 80 218 0.0 0.0 0.00 0.00 0.00 71 1012.7
20260831164034 80 223 0.0 0.0 0.00 0.00 0.00 71 1012.7
20260831163532 80 224 0.0 0.0 0.00 0.00 0.00 70 1012.7
20260831163031 80 205 0.0 0.0 0.00 0.00 0.00 71 1012.7
20260831162529 80 192 0.0 0.0 0.00 0.00 0.00 71 1012.6
20260831162053 79 192 0.0 0.0 0.00 0.00 0.00 72 1012.6
20260831161527 79 210 0.0 0.0 0.00 0.00 0.00 72 1012.6
20260831161026 79 211 0.0 0.0 0.00 0.00 0.00 72 1012.6
20260831160545 79 143 0.0 0.0 0.00 0.00 0.00 72 1012.6
20260831160020 78 143 0.0 0.0 0.00 0.00 0.00 72 1012.6
20260831155537 78 143 0.0 0.0 0.00 0.00 0.00 74 1012.7
20260831155056 78 143 0.0 0.0 0.00 0.00 0.00 73 1012.7
20260831154556 77 137 0.0 0.0 0.00 0.00 0.00 75 1012.7
20260831154032 77 137 0.0 0.0 0.00 0.00 0.00 76 1012.7
20260831153527 76 140 0.0 0.0 0.00 0.00 0.00 77 1012.7
20260831153027 75 140 0.0 0.0 0.00 0.00 0.00 78 1012.7
20260831152527 75 140 0.0 0.0 0.00 0.00 0.00 77 1012.6
20260831152021 75 142 0.0 0.0 0.00 0.00 0.00 78 1012.6
20260831151520 75 96 0.0 0.0 0.00 0.00 0.00 79 1012.5
20260831151036 75 96 0.0 0.0 0.00 0.00 0.00 79 1012.6
20260831150534 75 96 0.0 0.0 0.00 0.00 0.00 79 1012.5
20260831150033 75 96 0.0 0.0 0.00 0.00 0.00 79 1012.5
20260831145533 74 96 0.0 0.0 0.00 0.00 0.00 81 1012.5
20260831145029 74 98 0.0 0.0 0.00 0.00 0.00 82 1012.4
20260831144529 73 101 0.0 0.0 0.00 0.00 0.00 83 1012.5
20260831144023 72 103 0.0 0.0 0.00 0.00 0.00 84 1012.4
20260831143520 71 107 0.0 0.0 0.00 0.00 0.00 85 1012.3
20260831143038 71 109 0.0 0.0 0.00 0.00 0.00 85 1012.3
20260831142535 71 109 0.0 0.0 0.00 0.00 0.00 85 1012.2
20260831142035 71 110 0.0 0.0 0.00 0.00 0.00 85 1012.2
20260831141554 71 110 0.0 0.0 0.00 0.00 0.00 84 1012.2
20260831141032 71 110 0.0 0.0 0.00 0.00 0.00 84 1012.1
20260831140552 71 110 0.0 0.0 0.00 0.00 0.00 84 1012.0
20260831140030 71 110 0.0 0.0 0.00 0.00 0.00 84 1011.9
20260831135526 71 111 0.0 0.0 0.00 0.00 0.00 84 1011.8
20260831135027 71 111 0.0 0.0 0.00 0.00 0.00 84 1011.8
20260831134525 71 111 0.0 0.0 0.00 0.00 0.00 84 1011.7
20260831134019 71 111 0.0 0.0 0.00 0.00 0.00 84 1011.6
20260831133537 71 111 0.0 0.0 0.00 0.00 0.00 84 1011.6
20260831133033 71 111 0.0 0.0 0.00 0.00 0.00 84 1011.6
20260831132530 71 112 0.0 0.0 0.00 0.00 0.00 84 1011.6
20260831132025 71 112 0.0 0.0 0.00 0.00 0.00 84 1011.6
20260831131544 71 112 0.0 0.0 0.00 0.00 0.00 84 1011.4
20260831131020 71 113 0.0 1.0 0.00 0.00 0.00 85 1011.4
20260831130537 71 111 0.0 2.0 0.00 0.00 0.00 85 1011.4
20260831130034 71 117 0.0 4.0 0.00 0.00 0.00 85 1011.4
20260831125531 71 119 2.0 4.0 0.00 0.00 0.00 85 1011.3
20260831125030 71 116 0.0 4.0 0.00 0.00 0.00 86 1011.3
20260831124528 71 119 1.0 4.0 0.00 0.00 0.00 86 1011.3
20260831124048 71 122 0.0 0.0 0.00 0.00 0.00 87 1011.3
20260831123532 71 126 0.0 0.0 0.00 0.00 0.00 87 1011.2
20260831123030 71 180 0.0 0.0 0.00 0.00 0.00 88 1011.3
20260831122528 71 180 0.0 0.0 0.00 0.00 0.00 89 1011.2
20260831122033 71 180 0.0 0.0 0.00 0.00 0.00 89 1011.2
20260831121520 71 180 0.0 0.0 0.00 0.00 0.00 89 1011.2
20260831121020 71 180 0.0 0.0 0.00 0.00 0.00 89 1011.2
20260831120559 71 180 0.0 0.0 0.00 0.00 0.00 89 1011.1
20260831120037 70 180 0.0 0.0 0.00 0.00 0.00 89 1011.2
20260831115521 70 180 0.0 0.0 0.00 0.00 0.00 89 1011.2
20260831115028 70 180 0.0 0.0 0.00 0.00 0.00 89 1011.2
20260831114531 70 180 0.0 0.0 0.00 0.00 0.00 89 1011.2
20260831114028 70 180 0.0 0.0 0.00 0.00 0.00 90 1011.3
20260831113533 70 180 0.0 0.0 0.00 0.00 0.00 90 1011.2
20260831113033 70 180 0.0 0.0 0.00 0.00 0.00 90 1011.3
20260831112530 70 179 0.0 0.0 0.00 0.00 0.00 90 1011.3
20260831112029 70 179 0.0 0.0 0.00 0.00 0.00 90 1011.4
20260831111533 70 179 0.0 0.0 0.00 0.00 0.00 90 1011.4
20260831111031 70 179 0.0 0.0 0.00 0.00 0.00 91 1011.4
20260831110534 70 179 0.0 0.0 0.00 0.00 0.00 91 1011.4
20260831110028 70 178 0.0 0.0 0.00 0.00 0.00 91 1011.4
20260831105546 70 178 0.0 0.0 0.00 0.00 0.00 91 1011.3
20260831105048 70 178 0.0 0.0 0.00 0.00 0.00 90 1011.3
20260831104528 70 178 0.0 0.0 0.00 0.00 0.00 91 1011.4
20260831104054 70 178 0.0 0.0 0.00 0.00 0.00 90 1011.3
20260831103534 70 178 0.0 0.0 0.00 0.00 0.00 90 1011.4
20260831103027 70 178 0.0 0.0 0.00 0.00 0.00 90 1011.3
20260831102530 70 178 0.0 0.0 0.00 0.00 0.00 90 1011.3
20260831102030 70 178 0.0 0.0 0.00 0.00 0.00 90 1011.3
20260831101525 70 177 0.0 0.0 0.00 0.00 0.00 90 1011.4
20260831101026 70 177 0.0 0.0 0.00 0.00 0.00 90 1011.4
20260831100545 70 177 0.0 0.0 0.00 0.00 0.00 90 1011.4
20260831100022 70 177 0.0 0.0 0.00 0.00 0.00 90 1011.3
20260831095521 70 177 0.0 0.0 0.00 0.00 0.00 90 1011.3
20260831095047 70 176 0.0 0.0 0.00 0.00 0.00 90 1011.3
20260831094523 70 176 0.0 0.0 0.00 0.00 0.00 90 1011.3
20260831094025 70 176 0.0 0.0 0.00 0.00 0.00 90 1011.3
20260831093525 70 176 0.0 0.0 0.00 0.00 0.00 90 1011.3
20260831093050 70 175 0.0 0.0 0.00 0.00 0.00 89 1011.3
20260831092536 70 175 0.0 0.0 0.00 0.00 0.00 89 1011.3
20260831092037 70 175 0.0 0.0 0.00 0.00 0.00 89 1011.4
20260831091519 70 175 0.0 0.0 0.00 0.00 0.00 89 1011.3
20260831091033 70 175 0.0 0.0 0.00 0.00 0.00 89 1011.3
20260831090518 70 175 0.0 0.0 0.00 0.00 0.00 89 1011.3
20260831090038 71 175 0.0 0.0 0.00 0.00 0.00 89 1011.2
20260831085519 71 175 0.0 0.0 0.00 0.00 0.00 89 1011.3
20260831085022 71 175 0.0 0.0 0.00 0.00 0.00 89 1011.3
20260831084524 71 190 0.0 0.0 0.00 0.00 0.00 89 1011.4
20260831084022 71 190 0.0 0.0 0.00 0.00 0.00 89 1011.4
20260831083528 71 190 0.0 0.0 0.00 0.00 0.00 89 1011.4
20260831083026 71 190 0.0 0.0 0.00 0.00 0.00 89 1011.4
20260831082520 71 190 0.0 0.0 0.00 0.00 0.00 89 1011.4
20260831082024 71 190 0.0 0.0 0.00 0.00 0.00 89 1011.4
20260831081527 71 190 0.0 0.0 0.00 0.00 0.00 89 1011.4
20260831081029 71 190 0.0 0.0 0.00 0.00 0.00 90 1011.4
20260831080527 71 190 0.0 0.0 0.00 0.00 0.00 90 1011.4
20260831080046 72 190 0.0 1.0 0.00 0.00 0.00 90 1011.5
20260831075520 72 190 0.0 1.0 0.00 0.00 0.00 90 1011.5
20260831075023 72 192 0.0 0.0 0.00 0.00 0.00 90 1011.5
20260831074524 72 193 0.0 0.0 0.00 0.00 0.00 90 1011.6
20260831074033 72 193 0.0 0.0 0.00 0.00 0.00 90 1011.5
20260831073530 72 193 0.0 0.0 0.00 0.00 0.00 90 1011.5
20260831073058 72 194 0.0 0.0 0.00 0.00 0.00 90 1011.5
20260831072522 72 195 0.0 0.0 0.00 0.00 0.00 91 1011.5
20260831072024 72 195 0.0 0.0 0.00 0.00 0.00 91 1011.4
20260831071520 72 195 0.0 0.0 0.00 0.00 0.00 91 1011.5
20260831071027 71 195 0.0 0.0 0.00 0.00 0.00 92 1011.5
20260831070530 71 195 0.0 0.0 0.00 0.00 0.00 91 1011.4
20260831070034 71 195 0.0 0.0 0.00 0.00 0.00 92 1011.4
20260831065536 71 195 0.0 0.0 0.00 0.00 0.00 91 1011.4
20260831065019 71 195 0.0 0.0 0.00 0.00 0.00 91 1011.4
20260831064546 71 195 0.0 0.0 0.00 0.00 0.00 91 1011.3
20260831064029 71 194 0.0 0.0 0.00 0.00 0.00 91 1011.3
20260831063529 70 194 0.0 0.0 0.00 0.00 0.00 90 1011.3
20260831063024 70 194 0.0 0.0 0.00 0.00 0.00 90 1011.2
20260831062523 70 194 0.0 0.0 0.00 0.00 0.00 90 1011.2
20260831062022 70 194 0.0 0.0 0.00 0.00 0.00 89 1011.2
20260831061526 71 194 0.0 0.0 0.00 0.00 0.00 89 1011.3
20260831061029 71 194 0.0 0.0 0.00 0.00 0.00 89 1011.2
20260831060538 71 194 0.0 0.0 0.00 0.00 0.00 89 1011.1
20260831060026 71 193 0.0 0.0 0.00 0.00 0.00 89 1011.1
20260831055522 71 193 0.0 0.0 0.00 0.00 0.00 89 1011.2
20260831055024 71 192 0.0 0.0 0.00 0.00 0.00 89 1011.3
20260831054550 71 192 0.0 0.0 0.00 0.00 0.00 89 1011.3
20260831054032 71 192 0.0 0.0 0.00 0.00 0.00 89 1011.3
20260831053541 71 192 0.0 0.0 0.00 0.00 0.00 88 1011.3
20260831053020 71 192 0.0 0.0 0.00 0.00 0.00 88 1011.2
20260831052528 72 192 0.0 0.0 0.00 0.00 0.00 89 1011.2
20260831052031 72 192 0.0 0.0 0.00 0.00 0.00 89 1011.2
20260831051531 72 192 0.0 0.0 0.00 0.00 0.00 88 1011.2
20260831051037 72 192 0.0 0.0 0.00 0.00 0.00 88 1011.2
20260831050518 72 192 0.0 0.0 0.00 0.00 0.00 88 1011.2
20260831050038 72 192 0.0 0.0 0.00 0.00 0.00 87 1011.2
20260831045526 72 192 0.0 0.0 0.00 0.00 0.00 87 1011.1
20260831045032 72 192 0.0 0.0 0.00 0.00 0.00 87 1011.1
20260831044528 72 192 0.0 0.0 0.00 0.00 0.00 87 1011.2
20260831044026 72 192 0.0 0.0 0.00 0.00 0.00 87 1011.0
20260831043528 73 191 0.0 0.0 0.00 0.00 0.00 87 1011.0
20260831043026 73 191 0.0 0.0 0.00 0.00 0.00 86 1011.0
20260831042533 73 192 0.0 0.0 0.00 0.00 0.00 86 1011.0
20260831042019 73 192 0.0 0.0 0.00 0.00 0.00 86 1011.0
20260831041546 73 192 0.0 0.0 0.00 0.00 0.00 86 1010.9
20260831041030 73 192 0.0 0.0 0.00 0.00 0.00 86 1010.9
20260831040538 73 192 0.0 0.0 0.00 0.00 0.00 86 1010.9
20260831040021 73 192 0.0 0.0 0.00 0.00 0.00 86 1010.9
20260831035528 73 192 0.0 0.0 0.00 0.00 0.00 86 1010.8
20260831035031 73 192 0.0 0.0 0.00 0.00 0.00 85 1010.8
20260831034532 73 192 0.0 0.0 0.00 0.00 0.00 85 1010.8
20260831034029 74 192 0.0 0.0 0.00 0.00 0.00 85 1010.7
20260831033548 74 192 0.0 0.0 0.00 0.00 0.00 85 1010.7
20260831033023 74 192 0.0 0.0 0.00 0.00 0.00 85 1010.6
20260831032526 74 193 0.0 0.0 0.00 0.00 0.00 85 1010.5
20260831032022 74 193 0.0 0.0 0.00 0.00 0.00 85 1010.4
20260831031524 74 194 0.0 0.0 0.00 0.00 0.00 85 1010.4
20260831031028 74 194 0.0 0.0 0.00 0.00 0.00 85 1010.3
20260831030532 74 194 0.0 0.0 0.00 0.00 0.00 84 1010.3
20260831030018 74 197 0.0 0.0 0.00 0.00 0.00 84 1010.3
20260831025524 74 198 0.0 0.0 0.00 0.00 0.00 84 1010.2
20260831025026 75 198 0.0 0.0 0.00 0.00 0.00 84 1010.2
20260831024525 75 198 0.0 1.0 0.00 0.00 0.00 84 1010.1
20260831024035 75 189 0.0 1.0 0.00 0.00 0.00 83 1010.1
20260831023520 75 190 0.0 0.0 0.00 0.00 0.00 83 1010.1
20260831023030 75 191 0.0 0.0 0.00 0.00 0.00 82 1010.0
20260831022538 75 191 0.0 0.0 0.00 0.00 0.00 82 1010.0
20260831022020 76 191 0.0 0.0 0.00 0.00 0.00 82 1010.0
20260831021524 76 202 0.0 2.0 0.00 0.00 0.00 82 1009.9
20260831021034 76 219 0.0 2.0 0.00 0.00 0.00 82 1009.8
20260831020541 77 210 0.0 5.0 0.00 0.00 0.00 82 1009.8
20260831020038 77 203 2.0 5.0 0.00 0.00 0.00 81 1009.8
20260831015546 77 201 1.0 5.0 0.00 0.00 0.00 81 1009.7
20260831015029 78 217 1.0 4.0 0.00 0.00 0.00 81 1009.7
20260831014531 78 207 0.0 6.0 0.00 0.00 0.00 81 1009.7
20260831014038 78 202 2.0 6.0 0.00 0.00 0.00 80 1009.6
20260831013524 78 225 3.0 6.0 0.00 0.00 0.00 80 1009.6
20260831013035 79 201 1.0 6.0 0.00 0.00 0.00 80 1009.7
20260831012520 79 217 0.0 5.0 0.00 0.00 0.00 79 1009.7
20260831012021 79 232 2.0 4.0 0.00 0.00 0.00 78 1009.7
20260831011525 80 197 0.0 5.0 0.00 0.00 0.00 78 1009.8
20260831011028 80 197 2.0 7.0 0.00 0.00 0.00 77 1009.8
20260831010526 80 238 1.0 7.0 0.00 0.00 0.00 77 1009.8
20260831010028 80 186 1.0 6.0 0.00 0.00 0.00 77 1009.8
20260831005530 81 229 2.0 6.0 0.00 0.00 0.00 77 1009.8